TimePST,TemperatureF,Dew PointF,Humidity,Sea Level PressureIn,VisibilityMPH,Wind Direction,Wind SpeedMPH,Gust SpeedMPH,PrecipitationIn,Events,Conditions,WindDirDegrees,DateUTC
12:55 AM,51.1,46.9,86,30.19,10.0,Calm,Calm,-,N/A,,Clear,0,2012-11-20 08:55:00
1:55 AM,51.1,48.0,89,30.19,10.0,ENE,4.6,-,N/A,,Clear,70,2012-11-20 09:55:00
2:55 AM,50.0,46.9,89,30.17,10.0,West,3.5,-,N/A,,Clear,270,2012-11-20 10:55:00
3:55 AM,50.0,46.0,86,30.17,10.0,Calm,Calm,-,N/A,,Clear,0,2012-11-20 11:55:00
4:55 AM,50.0,46.0,86,30.17,10.0,Calm,Calm,-,N/A,,Clear,0,2012-11-20 12:55:00
5:55 AM,48.9,46.0,90,30.17,10.0,East,4.6,-,N/A,,Clear,90,2012-11-20 13:55:00
6:55 AM,48.9,46.0,90,30.18,10.0,Calm,Calm,-,N/A,,Clear,0,2012-11-20 14:55:00
7:55 AM,55.0,48.9,80,30.19,10.0,Calm,Calm,-,N/A,,Clear,0,2012-11-20 15:55:00
8:55 AM,60.1,50.0,69,30.18,10.0,Calm,Calm,-,N/A,,Clear,0,2012-11-20 16:55:00
9:55 AM,63.0,50.0,63,30.18,10.0,Calm,Calm,-,N/A,,Clear,0,2012-11-20 17:55:00
10:55 AM,66.9,48.0,51,30.16,10.0,West,4.6,-,N/A,,Clear,270,2012-11-20 18:55:00
11:55 AM,66.9,52.0,59,30.12,10.0,SW,8.1,-,N/A,,Clear,220,2012-11-20 19:55:00
12:55 PM,68.0,48.9,50,30.09,10.0,SW,5.8,-,N/A,,Clear,230,2012-11-20 20:55:00
1:55 PM,69.1,48.9,49,30.08,10.0,WSW,6.9,-,N/A,,Clear,240,2012-11-20 21:55:00
2:55 PM,68.0,48.9,50,30.07,10.0,WSW,8.1,-,N/A,,Clear,250,2012-11-20 22:55:00
3:55 PM,66.0,52.0,60,30.07,10.0,SW,3.5,-,N/A,,Clear,220,2012-11-20 23:55:00
4:55 PM,63.0,55.0,75,30.07,10.0,WSW,4.6,-,N/A,,Clear,250,2012-11-21 00:55:00
5:55 PM,61.0,55.0,81,30.08,10.0,Calm,Calm,-,N/A,,Clear,0,2012-11-21 01:55:00
6:55 PM,59.0,54.0,83,30.09,10.0,SE,4.6,-,N/A,,Partly Cloudy,140,2012-11-21 02:55:00
7:55 PM,59.0,55.0,87,30.10,10.0,Calm,Calm,-,N/A,,Mostly Cloudy,0,2012-11-21 03:55:00
8:20 PM,59.0,53.6,82,30.07,10.0,East,4.6,-,N/A,,Scattered Clouds,80,2012-11-21 04:20:00
8:55 PM,57.0,53.1,87,30.09,10.0,East,3.5,-,N/A,,Clear,80,2012-11-21 04:55:00
9:55 PM,55.0,51.1,86,30.09,10.0,Calm,Calm,-,N/A,,Clear,0,2012-11-21 05:55:00
10:55 PM,54.0,51.1,90,30.09,10.0,ENE,3.5,-,N/A,,Clear,70,2012-11-21 06:55:00
11:55 PM,52.0,48.9,89,30.09,10.0,Calm,Calm,-,N/A,,Clear,0,2012-11-21 07:55:00